| time (UTC) | temp F | wind direction | speed MPH | gust MPH | rain 1hr in | rain 24hr in | rain mn in | humidity % | barometer mb |
| 20260506211601 | 63 | 0 | 0.0 | 8.0 | 0.00 | 0.04 | 0.04 | 68 | 1013.5 |
| 20260506210057 | 63 | 0 | 0.0 | 6.0 | 0.00 | 0.04 | 0.04 | 70 | 1013.5 |
| 20260506204613 | 63 | 316 | 1.0 | 6.0 | 0.00 | 0.04 | 0.04 | 67 | 1013.7 |
| 20260506203100 | 63 | 0 | 0.0 | 8.0 | 0.00 | 0.04 | 0.04 | 68 | 1013.5 |
| 20260506201600 | 63 | 318 | 1.0 | 8.0 | 0.00 | 0.04 | 0.04 | 67 | 1014.0 |
| 20260506200057 | 62 | 0 | 0.0 | 8.0 | 0.00 | 0.04 | 0.04 | 69 | 1014.2 |
| 20260506194602 | 62 | 0 | 0.0 | 6.0 | 0.00 | 0.04 | 0.04 | 69 | 1014.3 |
| 20260506193057 | 60 | 0 | 0.0 | 3.0 | 0.00 | 0.04 | 0.04 | 72 | 1014.5 |
| 20260506191554 | 59 | 324 | 0.0 | 5.0 | 0.00 | 0.04 | 0.04 | 74 | 1014.9 |
| 20260506190059 | 58 | 315 | 0.0 | 8.0 | 0.00 | 0.04 | 0.04 | 73 | 1014.8 |
| 20260506184557 | 57 | 0 | 0.0 | 4.0 | 0.00 | 0.04 | 0.04 | 77 | 1015.1 |
| 20260506183056 | 57 | 0 | 0.0 | 6.0 | 0.00 | 0.04 | 0.04 | 76 | 1015.1 |
| 20260506181604 | 57 | 336 | 1.0 | 9.0 | 0.00 | 0.04 | 0.04 | 76 | 1014.6 |
| 20260506180057 | 57 | 338 | 5.0 | 14.0 | 0.00 | 0.04 | 0.04 | 77 | 1013.6 |
| 20260506174601 | 56 | 0 | 0.0 | 8.0 | 0.00 | 0.04 | 0.04 | 78 | 1014.0 |
| 20260506173118 | 55 | 0 | 0.0 | 3.0 | 0.00 | 0.04 | 0.04 | 82 | 1014.2 |
| 20260506171555 | 54 | 0 | 0.0 | 8.0 | 0.00 | 0.04 | 0.04 | 83 | 1014.6 |
| 20260506170055 | 54 | 0 | 0.0 | 2.0 | 0.00 | 0.04 | 0.04 | 85 | 1014.5 |
| 20260506164557 | 54 | 0 | 0.0 | 3.0 | 0.00 | 0.04 | 0.04 | 86 | 1014.2 |
| 20260506163102 | 53 | 0 | 0.0 | 5.0 | 0.00 | 0.04 | 0.04 | 86 | 1014.6 |
| 20260506161609 | 53 | 319 | 0.0 | 6.0 | 0.00 | 0.04 | 0.04 | 87 | 1014.3 |
| 20260506160107 | 53 | 0 | 0.0 | 3.0 | 0.00 | 0.04 | 0.04 | 88 | 1014.5 |
| 20260506154602 | 54 | 253 | 0.0 | 11.0 | 0.03 | 0.04 | 0.04 | 89 | 1013.9 |
| 20260506153100 | 54 | 333 | 0.0 | 13.0 | 0.04 | 0.04 | 0.04 | 91 | 1013.6 |
| 20260506151558 | 52 | 342 | 0.0 | 4.0 | 0.04 | 0.04 | 0.04 | 91 | 1014.3 |
| 20260506150101 | 51 | 0 | 0.0 | 5.0 | 0.03 | 0.03 | 0.03 | 89 | 1015.5 |
| 20260506144612 | 52 | 0 | 0.0 | 5.0 | 0.01 | 0.01 | 0.01 | 86 | 1015.5 |
| 20260506143100 | 52 | 0 | 1.0 | 11.0 | 0.00 | 0.00 | 0.00 | 84 | 1015.4 |
| 20260506141558 | 52 | 0 | 3.0 | 11.0 | 0.00 | 0.00 | 0.00 | 83 | 1014.0 |
| 20260506140113 | 52 | 0 | 4.0 | 11.0 | 0.00 | 0.00 | 0.00 | 83 | 1014.0 |
| 20260506134554 | 52 | 0 | 2.0 | 12.0 | 0.00 | 0.00 | 0.00 | 81 | 1014.8 |
| 20260506133133 | 53 | 0 | 2.0 | 9.0 | 0.00 | 0.00 | 0.00 | 80 | 1013.8 |
| 20260506131558 | 53 | 329 | 1.0 | 10.0 | 0.00 | 0.00 | 0.00 | 79 | 1013.5 |
| 20260506130136 | 53 | 0 | 0.0 | 5.0 | 0.00 | 0.00 | 0.00 | 79 | 1013.5 |
| 20260506124558 | 54 | 0 | 1.0 | 10.0 | 0.00 | 0.00 | 0.00 | 78 | 1013.0 |
| 20260506123101 | 54 | 319 | 1.0 | 5.0 | 0.00 | 0.00 | 0.00 | 76 | 1012.8 |
| 20260506121600 | 55 | 0 | 1.0 | 10.0 | 0.00 | 0.00 | 0.00 | 75 | 1012.8 |
| 20260506120104 | 55 | 341 | 2.0 | 8.0 | 0.00 | 0.00 | 0.00 | 75 | 1012.4 |
| 20260506114554 | 56 | 323 | 2.0 | 9.0 | 0.00 | 0.00 | 0.00 | 75 | 1012.4 |
| 20260506113056 | 56 | 0 | 0.0 | 6.0 | 0.00 | 0.00 | 0.00 | 75 | 1012.2 |
| 20260506111554 | 56 | 0 | 1.0 | 9.0 | 0.00 | 0.00 | 0.00 | 76 | 1011.7 |
| 20260506110053 | 57 | 360 | 1.0 | 8.0 | 0.00 | 0.00 | 0.00 | 76 | 1011.5 |
| 20260506104603 | 57 | 360 | 0.0 | 10.0 | 0.00 | 0.00 | 0.00 | 76 | 1011.5 |
| 20260506103055 | 57 | 0 | 0.0 | 9.0 | 0.00 | 0.00 | 0.00 | 75 | 1011.2 |
| 20260506101552 | 57 | 327 | 0.0 | 10.0 | 0.00 | 0.00 | 0.00 | 76 | 1010.7 |
| 20260506100106 | 57 | 0 | 1.0 | 6.0 | 0.00 | 0.00 | 0.00 | 75 | 1010.5 |
| 20260506094601 | 57 | 0 | 0.0 | 8.0 | 0.00 | 0.00 | 0.00 | 76 | 1010.4 |
| 20260506093054 | 57 | 0 | 2.0 | 10.0 | 0.00 | 0.00 | 0.00 | 76 | 1010.3 |
| 20260506091552 | 58 | 0 | 0.0 | 9.0 | 0.00 | 0.00 | 0.00 | 76 | 1010.3 |
| 20260506090054 | 58 | 0 | 1.0 | 7.0 | 0.00 | 0.00 | 0.00 | 76 | 1010.3 |
| 20260506084554 | 58 | 0 | 0.0 | 9.0 | 0.00 | 0.00 | 0.00 | 77 | 1010.0 |
| 20260506083055 | 58 | 0 | 0.0 | 8.0 | 0.00 | 0.00 | 0.00 | 77 | 1009.8 |
| 20260506081605 | 58 | 311 | 1.0 | 9.0 | 0.00 | 0.00 | 0.00 | 77 | 1009.7 |
| 20260506073057 | 60 | 0 | 0.0 | 4.0 | 0.00 | 0.00 | 0.00 | 78 | 1009.4 |
| 20260506071553 | 60 | 0 | 0.0 | 0.0 | 0.00 | 0.00 | 0.00 | 77 | 1009.4 |
| 20260506061553 | 61 | 352 | 0.0 | 5.0 | 0.00 | 0.00 | 0.00 | 77 | 1009.4 |
| 20260506060107 | 61 | 0 | 1.0 | 5.0 | 0.00 | 0.00 | 0.00 | 76 | 1009.3 |
| 20260506044554 | 64 | 0 | 0.0 | 4.0 | 0.00 | 0.00 | 0.00 | 74 | 1009.4 |
| 20260506043056 | 65 | 0 | 0.0 | 9.0 | 0.00 | 0.00 | 0.00 | 74 | 1009.0 |
| 20260506041558 | 65 | 331 | 2.0 | 11.0 | 0.00 | 0.00 | 0.00 | 74 | 1009.2 |
| 20260506040055 | 66 | 345 | 3.0 | 14.0 | 0.00 | 0.00 | 0.00 | 72 | 1009.3 |
| 20260506034612 | 67 | 324 | 3.0 | 10.0 | 0.00 | 0.00 | 0.00 | 72 | 1009.0 |
| 20260506033055 | 67 | 0 | 1.0 | 10.0 | 0.00 | 0.00 | 0.00 | 71 | 1008.6 |
| 20260506031555 | 68 | 0 | 0.0 | 6.0 | 0.00 | 0.00 | 0.00 | 69 | 1008.2 |
| 20260506030054 | 68 | 0 | 0.0 | 6.0 | 0.00 | 0.00 | 0.00 | 69 | 1007.7 |
| 20260506024556 | 69 | 0 | 0.0 | 9.0 | 0.00 | 0.00 | 0.00 | 69 | 1007.6 |
| 20260506023101 | 69 | 0 | 0.0 | 5.0 | 0.00 | 0.00 | 0.00 | 68 | 1007.3 |
| 20260506021553 | 70 | 343 | 1.0 | 6.0 | 0.00 | 0.00 | 0.00 | 69 | 1007.3 |
| 20260506020054 | 71 | 0 | 2.0 | 11.0 | 0.00 | 0.00 | 0.00 | 68 | 1006.9 |
| 20260506014554 | 72 | 0 | 1.0 | 8.0 | 0.00 | 0.00 | 0.00 | 67 | 1006.5 |
| 20260506013106 | 72 | 0 | 0.0 | 8.0 | 0.00 | 0.00 | 0.00 | 67 | 1006.0 |
| 20260506011558 | 73 | 0 | 1.0 | 7.0 | 0.00 | 0.00 | 0.00 | 65 | 1005.7 |
| 20260506010108 | 74 | 0 | 0.0 | 6.0 | 0.00 | 0.00 | 0.00 | 65 | 1005.6 |
| 20260506004552 | 75 | 0 | 1.0 | 11.0 | 0.00 | 0.00 | 0.00 | 64 | 1005.4 |
| 20260506003056 | 76 | 309 | 0.0 | 6.0 | 0.00 | 0.00 | 0.00 | 61 | 1005.1 |
| 20260506001601 | 77 | 0 | 0.0 | 3.0 | 0.00 | 0.00 | 0.00 | 60 | 1005.2 |
| 20260506000056 | 78 | 0 | 0.0 | 11.0 | 0.00 | 0.00 | 0.00 | 59 | 1005.3 |
| 20260505234552 | 79 | 0 | 0.0 | 11.0 | 0.00 | 0.00 | 0.00 | 58 | 1004.8 |
| 20260505233104 | 80 | 319 | 3.0 | 10.0 | 0.00 | 0.00 | 0.00 | 58 | 1004.6 |
| 20260505231553 | 82 | 330 | 2.0 | 13.0 | 0.00 | 0.00 | 0.00 | 58 | 1004.4 |
| 20260505230057 | 85 | 319 | 1.0 | 11.0 | 0.00 | 0.00 | 0.00 | 52 | 1004.2 |
| 20260505224559 | 86 | 0 | 2.0 | 10.0 | 0.00 | 0.00 | 0.00 | 48 | 1004.2 |
| 20260505223055 | 87 | 327 | 2.0 | 10.0 | 0.00 | 0.00 | 0.00 | 46 | 1003.9 |
| 20260505221556 | 92 | 0 | 0.0 | 3.0 | 0.00 | 0.00 | 0.00 | 43 | 1003.8 |
| 20260505214633 | 91 | 269 | 0.0 | 5.0 | 0.00 | 0.00 | 0.00 | 45 | 1003.7 |
| 20260505213116 | 92 | 0 | 2.0 | 7.0 | 0.00 | 0.00 | 0.00 | 43 | 1003.7 |